Location: El Limón
(10.3059°N, 67.6321°W)
Time: 13:03:32
(UTC+00:00)

Nadezhda 2 Rocket - Pass Details

Date: 24 December 2025
Orbit: 946 x 1011 km, 83.0° (Epoch: 12 January)

Event Time Altitude Azimuth Distance (km) Brightness Sun altitude
Rises 09:01:33 0° 144° (SE) 3,706 8.4 -24.3°
Reaches altitude 10° 09:05:29 10° 120° (ESE) 2,744 7.9 -23.4°
Maximum altitude 09:08:34 14° 90° (E) 2,446 7.5 -22.7°
Drops below altitude 10° 09:11:37 10° 60° (ENE) 2,721 7.3 -22.0°
Sets 09:15:27 0° 37° (NE) 3,654 7.7 -21.1°
